Miscellaneous Local Product
Issued by NWS Hastings, NE

Home | Current Version | Previous Version | Graphics & Text | Print | Product List | Glossary On
Versions: 1 2 3 4 5 6 7 8 9 10 11 12 13 14 15 16 17 18 19 20 21 22 23 24 25 26 27 28 29 30 31 32 33 34 35 36 37 38 39 40 41 42 43 44 45 46 47 48 49 50
000
AXUS43 KGID 250602
MISGRI

GID CWA HOURLY WEATHER ROUNDUP
NATIONAL WEATHER SERVICE HASTINGS NE
1200 AM CST SAT FEB 25 2017

NOTE: "FAIR" INDICATES FEW OR NO CLOUDS BELOW 12,000 FEET WITH NO
SIGNIFICANT WEATHER AND/OR OBSTRUCTIONS TO VISIBILITY.

...SOUTH CENTRAL NEBRASKA...

CITY           SKY/WX    TMP DP  RH WIND       PRES   REMARKS
GRAND ISLAND   CLEAR     16  11  80 NW12      30.12S WCI   3
HASTINGS       CLEAR     16  10  77 NW10      30.13S WCI   4
KEARNEY        CLOUDY    16   9  73 NW8       30.13S WCI   5
ORD            CLEAR     14   8  77 NW9       30.11F WCI   2
YORK           PTCLDY    21  16  79 NW13      30.10S WCI   9
AURORA         CLEAR     18  13  80 NW9       30.11S WCI   7
LEXINGTON      CLOUDY    15  10  77 W12       30.14S WCI   2
HOLDREGE       CLOUDY    14   9  81 NW8       30.13S WCI   3
HEBRON         CLEAR     20  15  79 NW9G17    30.12F WCI  10

...NEBRASKA PANHANDLE...

CITY           SKY/WX    TMP DP  RH WIND       PRES   REMARKS
CHADRON        CLOUDY     4   0  83 SW3       30.06F
ALLIANCE       FOG       -2  -4  91 CALM      30.04F VSB 1
SCOTTSBLUFF    CLOUDY    12   7  80 CALM      30.04S
SIDNEY         CLOUDY     5   1  83 SW9       30.04F WCI  -9

...WESTERN AND NORTH CENTRAL NEBRASKA...

CITY           SKY/WX    TMP DP  RH WIND       PRES   REMARKS
VALENTINE      CLOUDY     3  -2  79 SW7       30.11F WCI  -9
AINSWORTH      CLOUDY     8   5  89 W8        30.10S WCI  -5
ONEILL         CLOUDY    17  11  79 NW8       30.11S WCI   6
BROKEN BOW     CLOUDY    14   8  77 W3        30.11S
IMPERIAL       CLOUDY    15  11  83 W3        30.13S
NORTH PLATTE   CLOUDY    12   7  80 NW8       30.14F WCI   0
MCCOOK         CLOUDY    16  10  77 NW9       30.17S WCI   4

...EASTERN NEBRASKA...

CITY           SKY/WX    TMP DP  RH WIND       PRES   REMARKS
NORFOLK        CLEAR     20  12  71 NW13      30.09R WCI   7
SO SIOUX CITY  CLEAR     21  13  71 NW17      30.06R WCI   7
TEKAMAH        CLEAR     21  13  71 N15       30.07R WCI   8
COLUMBUS       CLEAR     21  12  68 NW16      30.11R WCI   7
ALBION         CLOUDY    21  11  64 NW8       30.11R WCI  12
OMAHA EPPLEY   PTCLDY    24  15  68 NW18      30.05R WCI  10
MILLARD        CLEAR     27  18  70 NW12      30.07R WCI  16
LINCOLN        CLEAR     25  17  72 NW13      30.11R WCI  14
NEBRASKA CITY  CLEAR     23  16  74 NW13G18   30.06R WCI  11
BEATRICE       CLEAR     24  17  75 NW14      30.09S WCI  12
FALLS CITY     CLOUDY    24  18  77 NW13      30.07R WCI  12

...NORTHERN KANSAS...

CITY           SKY/WX    TMP DP  RH WIND       PRES   REMARKS
GOODLAND       CLEAR     12  10  92 W5        30.12S WCI   4
HILL CITY      CLEAR     17  13  84 NW6       30.19R WCI   9
PHILLIPSBURG   CLEAR     19  14  79 W8        30.18R WCI   9
SMITH CENTER   CLEAR     14  10  85 NW3       30.17R
HAYS           CLEAR     14  10  84 W7        30.19S WCI   4
RUSSELL        CLEAR     18  13  80 NW8       30.16F WCI   8
CONCORDIA      CLEAR     22  15  75 NW10      30.14S WCI  11
SALINA         CLEAR     24  16  71 NW10      30.18S WCI  14
TOPEKA         CLEAR     25  19  78 W12       30.11R WCI  14



USA.gov is the U.S. government's official web portal to all federal, state and local government web resources and services.